Theta_e
347 341 342 338 315 311 302 305 309 309 308 310 313 312 311 315 318 310 334 344 348 350 351 352 352 350 347 345 344 345 346 346 344 342 342 342 342 344 346 348 349 350 351 354 353 353 353 353 354
342 342 340 329 310 305 301 307 309 312 313 313 315 314 314 314 325 331 336 346 349 350 350 348 352 351 347 346 344 343 345 344 343 341 340 340 341 341 341 342 342 344 346 348 351 352 352 353 353
337 340 325 319 315 306 302 309 310 313 314 315 313 317 315 317 328 332 339 347 349 349 349 347 352 352 348 346 346 345 343 343 343 341 341 344 346 346 345 343 342 341 340 340 341 345 346 345 350
328 328 323 312 308 312 311 311 313 313 314 318 318 315 320 325 327 330 343 347 347 347 345 351 352 351 349 349 348 347 347 346 347 346 343 346 347 347 348 349 347 347 347 345 343 342 340 340 340
324 323 313 308 310 313 311 314 314 311 312 314 318 315 315 322 329 340 343 346 345 346 347 347 352 351 350 350 349 348 349 348 347 348 348 348 348 350 351 349 349 346 347 346 345 344 343 343 343
314 319 307 304 309 315 311 315 314 311 312 316 317 315 315 322 329 340 343 344 347 346 346 347 352 352 351 350 350 351 352 351 350 349 349 349 349 349 348 346 345 343 341 340 341 340 339 341 343
312 312 308 308 309 310 313 314 311 310 310 311 319 313 315 319 325 340 341 344 347 347 345 345 348 353 354 353 352 351 351 351 350 349 348 347 344 343 340 338 333 331 331 331 333 332 331 338 338
317 316 310 310 308 308 316 314 315 312 309 316 322 313 312 320 325 335 339 340 344 345 344 343 345 347 347 348 352 351 350 349 348 345 341 337 331 331 330 328 329 328 328 328 327 327 326 326 327
321 308 306 309 311 312 314 308 310 312 311 312 316 319 322 326 326 331 331 337 340 342 342 343 344 345 343 343 346 346 345 346 346 339 336 325 314 315 318 329 328 325 325 325 325 324 323 319 319
312 306 308 315 317 312 313 309 308 307 308 310 317 321 325 326 325 326 329 332 335 336 340 341 342 340 340 343 336 328 326 323 319 328 310 308 310 312 315 319 322 322 320 321 321 320 317 310 301
312 307 314 316 317 319 313 308 309 305 303 310 317 320 324 324 324 324 327 332 334 336 340 341 340 338 334 331 321 315 306 303 303 305 303 303 304 302 302 301 300 300 310 300 302 301 300 299 300
310 316 318 318 316 314 313 313 305 305 306 311 322 324 325 324 324 324 323 331 333 335 338 340 338 330 323 321 314 312 302 301 300 301 302 300 299 299 299 299 299 299 299 298 298 298 299 299 299
310 314 318 317 314 312 313 309 307 307 309 312 322 325 325 325 324 325 324 331 334 334 337 338 331 321 318 311 305 303 302 300 300 301 301 300 300 299 300 299 299 298 299 298 297 298 298 298 299
313 315 316 313 312 314 308 311 312 308 309 312 320 321 322 323 324 323 327 330 330 334 334 330 323 312 304 302 301 301 301 300 300 300 301 301 300 300 300 299 299 299 299 298 298 298 297 297 297
310 308 307 308 310 309 314 305 306 307 308 311 313 314 318 320 321 321 327 326 325 328 323 321 311 304 301 301 302 302 302 302 300 301 302 302 302 300 299 299 298 298 299 299 299 299 298 298 299
306 304 298 306 307 307 311 301 309 314 308 305 307 309 312 315 317 320 327 324 321 320 318 314 309 303 301 301 301 302 302 301 301 300 301 302 303 301 300 299 299 299 300 300 298 298 297 297 296
302 295 298 300 308 308 307 302 308 314 310 306 304 304 308 311 316 319 324 322 320 313 306 303 303 302 301 300 300 301 301 300 300 299 300 301 303 303 300 299 299 300 300 299 298 298 297 296 296
294 296 299 297 304 306 303 302 309 314 315 313 309 305 306 311 316 318 321 318 311 305 303 302 302 300 300 299 298 299 300 299 300 300 300 301 302 302 301 300 300 299 298 298 297 296 296 296 295
301 300 299 302 309 305 301 304 308 311 310 309 307 302 301 307 310 314 315 308 304 303 303 301 300 299 300 298 297 297 298 298 299 300 302 301 301 301 300 300 299 298 298 297 297 296 295 295 294
303 299 298 299 309 304 305 305 309 310 307 307 304 302 300 300 308 306 308 302 304 302 302 300 300 299 299 299 298 298 298 298 299 300 300 301 300 300 300 299 299 297 297 295 295 295 294 294 293
303 300 298 297 301 300 299 296 299 303 302 302 302 301 301 300 305 302 302 302 300 300 300 300 299 299 299 300 300 300 300 300 300 300 299 300 300 300 300 298 298 297 295 295 294 294 293 291 292
299 305 304 301 297 293 298 288 290 295 295 298 298 297 298 299 303 302 300 299 300 300 301 301 300 299 300 300 300 300 299 298 298 299 300 301 301 300 300 298 297 295 295 294 294 296 293 291 290
302 305 304 302 295 290 290 286 288 292 291 294 294 296 296 298 301 301 299 299 299 299 299 299 299 299 300 299 301 300 298 299 300 300 300 299 299 299 298 297 296 295 294 294 293 292 291 291 290
304 298 297 295 291 285 289 288 286 289 291 292 293 295 296 298 298 300 299 299 299 298 299 299 298 299 299 299 299 299 299 299 299 298 298 297 297 297 297 297 295 295 294 293 293 292 291 291 290
300 295 286 284 282 282 288 287 289 289 292 294 294 294 295 294 296 297 298 298 299 299 299 300 300 300 299 298 299 298 298 297 297 297 295 294 294 294 295 295 294 293 293 293 292 291 290 290 289
296 296 286 280 280 283 288 284 287 291 294 295 296 295 295 295 295 296 296 297 297 298 299 300 299 298 298 298 297 297 298 297 296 295 294 294 294 294 295 294 293 293 293 293 292 290 290 289 289
293 291 293 286 284 282 284 285 289 292 292 293 293 294 294 294 294 294 295 295 295 295 296 298 297 296 295 294 294 293 294 294 294 293 293 293 293 296 294 293 292 292 292 291 290 289 288 288 288
295 297 287 285 279 277 281 281 284 288 290 292 292 292 293 293 293 293 294 294 294 294 294 294 295 295 294 294 294 293 292 293 293 292 292 292 292 292 291 290 290 290 290 289 288 287 288 287 288
292 292 291 289 285 280 278 282 287 290 292 291 291 292 293 293 293 293 293 294 294 294 294 294 294 294 294 294 293 292 292 292 292 291 291 290 290 289 290 290 289 289 289 288 287 287 287 287 287
292 290 289 284 282 281 279 281 289 291 294 294 292 293 293 294 294 294 293 293 293 292 292 292 293 292 293 293 292 292 292 292 291 290 290 289 289 289 289 289 289 288 288 288 287 287 288 288 288
Wind_Speed
6 3 3 3 4 4 2 4 4 3 3 3 2 9 8 4 1 3 2 9 14 11 10 10 14 13 13 13 13 12 12 12 12 13 13 13 13 13 13 12 13 13 13 14 14 13 13 12 12
2 1 4 2 5 1 5 1 5 5 7 7 9 4 6 3 3 9 8 12 15 12 9 8 15 13 13 13 13 12 12 12 12 13 13 13 14 13 13 13 13 13 13 12 12 13 13 12 12
2 1 3 3 2 4 3 3 6 4 10 5 5 4 5 4 6 9 12 14 14 11 9 10 15 14 13 12 12 12 12 12 12 13 13 13 13 13 13 13 13 13 13 13 12 11 11 11 11
2 4 4 3 4 3 5 6 5 7 2 6 6 6 4 5 10 9 17 16 12 10 7 13 15 14 13 12 12 12 12 12 12 12 12 12 12 12 12 13 13 13 13 13 12 11 11 10 11
3 3 4 1 5 3 3 5 8 6 5 4 4 3 3 1 10 19 18 15 15 9 8 11 16 14 13 12 12 12 12 12 11 11 11 11 11 12 14 13 14 13 13 12 12 11 10 10 11
3 3 4 2 4 5 3 6 7 6 3 5 6 5 4 4 17 16 16 14 15 14 11 11 16 15 14 13 12 11 11 11 11 11 10 12 13 15 14 13 13 12 12 12 12 11 11 9 11
5 4 5 5 4 5 5 6 6 7 6 4 11 5 2 3 11 16 15 14 13 13 11 9 9 12 14 13 12 11 11 11 12 13 12 13 13 13 13 12 12 12 12 14 13 14 15 16 14
5 4 5 5 5 7 6 7 5 8 5 5 6 7 7 9 10 15 14 12 11 10 11 7 6 7 7 7 12 10 11 12 13 14 14 14 13 13 13 10 9 11 15 15 15 16 17 17 17
4 3 3 5 6 8 4 6 1 2 7 2 3 8 8 16 11 13 9 9 9 9 8 8 8 7 6 7 8 10 12 12 12 12 12 10 5 6 8 12 13 15 16 16 17 18 19 18 17
5 4 8 6 3 6 7 6 9 6 5 3 2 3 18 15 12 16 13 13 12 12 10 8 9 8 7 6 6 5 4 4 3 4 6 4 5 4 6 11 14 16 16 17 17 17 17 13 5
6 6 6 4 6 4 5 6 3 10 2 7 10 12 19 10 10 14 14 17 19 16 11 9 9 9 7 6 4 3 3 3 4 6 5 5 5 4 4 4 4 4 11 5 7 7 5 8 6
5 4 2 4 5 4 2 2 5 4 7 9 12 20 16 14 13 11 11 14 13 13 12 12 8 6 4 4 4 5 4 4 4 4 6 5 4 5 4 4 4 5 3 6 5 4 6 7 7
6 5 5 4 3 3 1 1 4 4 1 8 9 13 15 14 10 6 8 10 13 12 12 11 9 6 6 5 4 5 4 4 5 5 5 5 5 5 4 4 4 4 3 4 5 5 5 6 7
8 7 5 3 3 5 4 2 0 2 1 9 13 11 9 10 9 5 8 14 10 12 11 10 9 7 7 6 6 5 4 5 5 4 5 6 5 5 5 4 4 4 3 3 4 4 5 4 5
5 5 3 4 3 2 3 6 4 4 3 8 7 6 7 8 6 7 10 11 14 11 11 10 10 8 8 8 6 5 5 5 5 4 5 7 5 6 5 4 3 2 3 5 5 5 4 5 5
6 6 5 3 5 2 6 3 4 5 7 4 4 7 8 7 7 7 11 13 11 13 13 9 10 9 8 8 6 5 5 4 4 4 4 6 6 6 5 4 2 2 3 3 3 3 3 3 4
1 6 4 3 1 4 3 4 5 1 3 6 7 6 8 7 5 8 13 14 13 13 12 10 10 10 9 8 5 5 6 5 4 4 4 5 6 6 5 3 2 2 3 2 2 2 3 3 4
4 6 3 7 7 2 4 6 5 5 5 4 5 7 8 7 10 11 14 13 13 13 12 12 8 9 8 6 5 3 3 2 3 4 4 6 5 6 5 3 3 2 2 2 3 3 2 1 3
5 6 6 2 5 5 8 4 7 7 5 7 6 7 6 9 3 4 11 10 10 10 13 12 11 7 7 3 4 2 3 2 1 4 6 6 5 6 5 3 3 2 2 1 1 1 3 3 3
4 5 4 1 4 3 6 9 10 5 5 6 8 6 4 4 7 8 13 11 13 12 12 9 10 9 5 5 3 3 3 2 2 2 4 5 6 6 5 5 4 4 2 1 1 1 1 2 2
6 5 5 6 3 2 6 7 6 4 3 4 4 5 6 2 9 8 11 12 8 9 9 9 10 9 7 7 4 3 3 3 2 1 2 4 6 6 6 6 5 5 3 3 2 2 4 2 2
11 8 8 7 7 6 3 5 4 3 5 4 3 3 5 2 6 7 8 8 11 8 7 8 8 9 7 8 5 5 5 4 3 3 3 4 5 6 6 6 5 4 3 3 2 2 2 3 3
8 7 13 8 5 5 1 4 7 3 3 4 2 2 0 2 6 8 8 9 7 8 8 7 7 6 4 7 7 6 4 4 3 2 3 3 2 2 3 2 3 3 2 2 3 2 2 3 3
5 7 7 5 3 0 7 7 6 6 8 4 2 0 3 5 3 8 6 7 6 4 5 5 6 3 3 5 4 6 7 6 3 2 1 1 1 2 3 3 2 2 1 2 3 3 4 5 4
3 6 3 1 1 6 4 4 8 2 5 7 7 4 6 5 6 8 9 7 6 7 7 6 7 5 4 4 4 5 5 3 4 2 3 3 1 0 2 1 1 2 3 4 4 4 5 5 4
6 6 7 7 5 5 6 6 5 2 4 7 6 6 6 7 7 8 8 8 7 6 5 6 7 6 5 6 6 5 4 3 2 2 2 2 2 2 2 3 3 4 4 5 5 3 4 5 5
5 3 4 6 2 3 3 3 5 4 5 5 7 7 6 7 7 9 8 8 7 7 7 7 8 7 7 7 6 6 5 5 3 2 2 0 0 2 3 4 5 5 5 5 5 4 6 5 6
2 3 3 3 4 4 3 3 5 8 8 6 7 8 6 6 7 7 6 7 5 6 5 7 6 6 4 5 5 4 4 4 4 3 3 3 2 2 3 4 5 6 6 6 6 5 6 6 5
1 0 4 4 4 5 2 7 6 13 12 11 9 8 8 7 7 6 6 5 5 4 4 4 4 3 3 4 3 4 3 4 4 3 2 1 1 2 3 4 5 6 6 6 6 7 7 7 7
3 4 4 6 3 1 5 7 4 8 12 11 8 8 7 7 8 6 5 5 5 5 4 4 3 2 1 1 3 3 3 3 2 1 2 2 3 3 4 5 6 6 6 7 7 8 9 7 6
Wind_Direction
319 325 104 49 56 62 221 229 160 161 61 329 18 100 115 61 104 182 154 148 135 142 139 136 133 125 117 113 111 111 105 99 95 91 88 85 81 82 81 77 71 67 65 63 67 65 60 50 37
328 68 53 83 85 36 270 249 159 168 129 129 90 92 55 64 68 112 106 151 138 139 140 132 135 127 120 118 114 111 109 106 100 95 93 91 88 85 82 77 74 72 69 62 57 57 56 45 36
284 156 80 92 121 191 200 214 169 154 157 141 102 81 119 131 100 156 134 146 138 137 142 145 139 133 125 123 119 114 112 108 102 100 99 95 91 89 86 82 77 74 70 63 58 53 46 36 25
60 19 28 92 236 261 220 185 183 138 119 72 120 75 68 224 156 137 140 144 133 138 135 139 135 129 129 125 122 119 116 111 106 104 104 102 98 95 94 93 85 79 73 66 62 57 49 39 26
41 59 76 357 281 256 188 196 162 146 145 126 123 133 75 37 113 130 143 141 135 135 143 138 137 135 131 128 126 122 119 116 112 110 110 101 95 86 83 83 79 73 67 62 57 51 43 35 31
46 105 83 211 285 295 202 189 163 144 151 150 85 102 178 143 131 146 144 143 147 148 150 146 142 138 132 131 132 130 116 114 116 109 98 94 85 77 73 73 71 68 66 62 59 51 37 26 30
132 107 180 176 231 301 197 137 173 161 151 184 143 100 157 183 149 149 146 148 154 148 143 145 144 145 133 125 121 119 115 115 110 106 97 90 88 85 84 79 75 69 68 59 56 53 42 42 38
130 115 176 217 183 238 230 146 183 148 184 100 138 155 189 207 156 145 147 149 142 148 146 145 138 128 131 127 125 121 118 114 113 112 106 102 91 88 83 60 72 72 59 62 50 48 41 38 40
127 94 193 202 163 242 203 139 138 95 121 67 175 154 173 173 132 137 138 128 142 152 155 145 139 133 128 125 132 125 122 122 123 117 116 98 90 78 51 63 66 62 60 55 53 47 45 41 36
132 155 211 215 213 267 181 140 146 125 132 30 61 24 142 158 153 150 157 160 163 160 163 153 147 144 147 139 126 112 91 101 120 124 103 106 105 89 70 64 61 61 57 55 51 48 43 38 24
179 195 202 265 298 216 167 137 134 124 222 195 173 151 154 162 172 157 168 174 174 168 159 156 160 159 156 143 134 111 92 93 84 104 107 98 88 74 66 59 43 41 53 38 40 34 31 31 29
160 193 128 297 337 348 39 121 84 173 213 169 172 163 158 172 181 179 166 169 156 160 159 157 159 153 139 125 130 125 121 117 103 101 109 103 92 78 70 67 57 57 38 52 44 36 28 27 22
185 181 187 270 38 44 183 113 180 145 248 130 133 160 169 175 183 187 153 156 157 151 157 157 151 144 141 125 122 114 128 104 111 97 96 104 102 97 95 78 70 63 50 49 42 38 32 23 13
196 172 182 191 83 38 51 10 52 118 160 120 154 171 172 173 181 130 137 153 155 145 154 151 144 138 127 124 120 126 117 114 97 95 109 103 114 115 100 89 73 58 55 52 55 46 31 24 14
156 111 137 176 144 97 305 20 358 4 82 129 149 157 176 195 201 160 152 141 141 147 144 139 135 132 130 126 129 128 133 115 109 110 105 110 111 109 110 99 77 74 60 60 41 29 27 22 5
138 99 144 219 146 14 116 222 279 357 117 131 191 189 189 204 198 158 147 135 140 135 140 143 140 141 132 130 128 123 123 121 126 128 122 119 124 128 118 114 108 96 69 62 46 32 14 13 8
212 162 148 135 242 146 117 207 246 312 97 128 157 209 218 197 157 153 149 147 147 142 141 135 140 142 137 130 127 133 136 139 154 146 143 142 138 141 126 129 139 106 84 62 21 19 55 359 342
161 117 136 154 189 102 198 217 231 259 253 193 181 199 213 213 178 167 156 154 149 141 140 137 141 145 131 116 104 87 111 132 161 175 173 165 157 150 137 144 152 132 92 40 26 22 354 331 315
147 152 173 226 179 120 195 209 236 238 224 247 241 196 210 207 130 143 150 144 137 133 136 147 144 147 137 123 125 115 173 164 193 208 191 187 179 174 167 163 155 138 121 132 94 24 5 325 10
169 164 176 71 164 123 179 241 245 238 217 218 204 174 191 126 125 151 163 153 160 154 143 143 149 158 160 137 139 133 151 188 177 205 214 207 193 184 174 174 191 184 162 186 191 124 356 299 10
226 173 176 169 135 328 114 299 242 230 153 125 73 116 96 144 167 162 163 164 147 150 150 156 165 164 164 150 109 79 67 48 59 234 235 225 211 201 196 193 189 192 176 210 218 193 169 212 301
220 188 188 141 126 198 184 251 284 209 129 93 80 63 82 72 163 152 164 155 163 171 167 163 160 164 178 155 145 149 165 166 214 199 225 245 231 229 216 208 206 197 190 208 222 184 169 138 240
237 182 166 183 134 122 166 98 262 105 145 184 186 92 92 238 159 165 165 161 162 160 178 167 157 171 165 167 169 167 169 194 189 183 218 223 263 324 312 258 198 205 201 217 218 257 232 191 193
178 89 50 52 84 53 209 152 274 192 192 180 216 37 352 331 249 151 133 127 124 108 111 125 141 133 140 154 170 185 194 196 184 198 222 357 38 57 57 87 130 154 179 225 234 235 231 239 218
103 83 58 343 271 215 155 149 236 205 169 163 168 89 26 32 95 115 122 110 90 97 114 114 116 107 107 142 171 198 224 228 226 182 161 149 140 201 253 190 203 243 232 236 229 235 244 248 229
191 162 160 173 185 223 109 216 257 354 127 123 111 107 69 55 67 81 88 97 102 99 95 105 108 97 96 90 67 64 76 94 108 124 146 168 192 229 251 260 252 256 267 274 272 258 257 251 245
188 164 173 102 74 90 199 331 353 73 95 117 122 105 92 78 80 91 93 97 102 94 88 97 92 79 76 90 96 80 80 84 95 104 101 164 259 284 344 331 317 313 304 296 289 271 270 260 251
143 184 77 9 151 224 283 238 229 193 181 169 157 143 127 113 102 104 104 116 109 105 105 97 104 115 117 107 114 110 103 90 79 52 33 23 358 5 342 331 325 316 307 300 291 281 272 265 259
57 74 45 99 138 164 186 262 214 191 179 178 183 166 155 146 138 144 142 121 114 110 99 100 87 106 129 139 109 87 78 90 94 103 146 183 272 326 321 305 298 293 291 288 284 271 266 257 261
208 191 129 124 235 113 146 271 353 181 173 166 172 169 158 152 167 151 123 107 85 77 67 63 45 35 9 101 97 95 80 58 38 323 307 312 308 309 299 299 296 289 282 277 269 274 280 261 259